Date,TemperatureHighF,TemperatureAvgF,TemperatureLowF,DewpointHighF,DewpointAvgF,DewpointLowF,HumidityHigh,HumidityAvg,HumidityLow,PressureMaxIn,PressureMinIn,WindSpeedMaxMPH,WindSpeedAvgMPH,GustSpeedMaxMPH,PrecipitationSumIn
2013-4-1,65.9,57.9,52.5,54.8,52.5,50.0,95,83,65,30.18,30.09,16,2,16,0.00
2013-4-2,69.1,57.2,48.4,55.0,51.3,47.0,96,82,58,30.11,30.01,8,1,12,0.00
2013-4-3,72.2,58.6,49.4,57.0,53.3,48.0,97,84,55,30.10,30.01,8,2,12,0.00
2013-4-4,69.2,58.4,54.4,57.0,54.2,52.0,93,86,61,30.13,30.03,9,2,13,0.00
2013-4-5,70.1,60.2,52.8,58.0,54.6,51.0,92,82,63,30.11,30.00,5,1,10,0.00
2013-4-6,71.1,59.1,47.7,57.0,52.6,47.0,96,80,59,30.11,29.95,8,1,11,0.00
2013-4-7,74.6,60.8,48.1,58.0,52.2,46.7,95,76,47,29.98,29.79,11,2,11,0.00
2013-4-8,71.1,58.7,49.1,50.7,42.0,30.3,94,59,25,29.85,29.66,20,4,27,0.00
2013-4-9,72.0,58.8,44.0,48.0,39.6,28.4,82,54,20,30.00,29.85,11,2,16,0.00
2013-4-10,81.4,62.4,44.3,49.6,36.7,21.0,78,46,11,30.11,29.98,13,2,13,0.00
2013-4-11,70.0,57.5,45.4,51.5,46.6,39.6,90,69,44,29.99,29.78,10,2,16,0.00
2013-4-12,68.5,56.6,49.4,55.0,51.1,47.0,96,82,61,29.89,29.81,6,1,12,0.00
2013-4-13,59.6,55.7,51.9,54.0,52.4,50.0,95,89,80,29.93,29.85,5,1,9,0.00
2013-4-14,62.1,56.8,53.5,54.0,52.4,50.0,96,86,69,29.90,29.84,7,1,9,0.01
2013-4-15,65.5,57.1,48.2,53.0,49.3,43.0,90,76,60,29.91,29.84,6,2,13,0.00
2013-4-16,64.2,54.3,42.5,46.0,42.9,37.0,93,68,38,30.03,29.88,9,2,16,0.00
2013-4-17,68.8,56.3,41.3,46.0,38.6,24.0,91,58,21,30.14,30.04,13,2,18,0.00
2013-4-18,78.7,63.7,50.4,40.0,25.2,16.0,59,27,10,30.22,30.14,18,5,20,0.00
2013-4-19,81.3,64.5,47.0,50.0,38.3,22.0,83,43,13,30.17,29.98,7,1,12,0.00
2013-4-20,81.8,64.0,47.5,54.1,47.4,37.0,86,58,30,30.00,29.89,14,2,14,0.00
2013-4-21,76.9,62.1,48.4,56.7,51.5,44.3,92,71,40,30.01,29.94,13,2,14,0.00
2013-4-22,69.1,60.6,55.6,56.2,53.8,52.0,91,79,61,30.01,29.91,8,1,12,0.00
2013-4-23,69.6,60.9,54.3,54.0,52.4,50.0,92,74,58,29.98,29.89,7,1,13,0.00
2013-4-24,60.5,56.8,54.4,55.0,53.2,51.0,94,88,81,30.01,29.91,5,0,8,0.00
2013-4-25,71.6,60.9,51.0,53.0,50.0,47.0,93,70,43,30.14,29.98,10,2,13,0.00
2013-4-26,72.7,60.8,51.1,55.0,50.5,46.0,91,71,48,30.16,30.11,8,2,12,0.00
2013-4-27,72.8,60.6,48.1,58.0,52.6,47.0,95,77,54,30.15,30.00,8,1,13,0.00
2013-4-28,71.2,59.8,53.2,58.0,54.5,52.0,96,84,63,30.02,29.87,7,1,10,0.00
2013-4-29,67.8,59.9,53.3,58.0,55.1,52.0,96,85,69,29.91,29.80,8,2,13,0.00
2013-4-30,67.1,60.5,56.6,56.0,54.8,54.0,93,82,65,29.90,29.83,14,2,14,0.00